Погода в Фокине

Россия / Нижегородская область     56°09′53″N   45°49′35″E
темп.,
°C
ветер,
м/с
пор.,
м/с
влажн.,
%
обл.,
%
осадки,
мм/ч
давл.,
гПа
погр.,
м
14 апреля, ср
ср1400:00+6ю278529 0.0 102993
03:00+4ююв248678 0.0 102855
06:00+5ююв26835 0.0 102883
09:00+12ю365940 0.0 1027266
12:00+16ююв464512 0.0 1025688
15:00+18ю46445 0.0 10241035
18:00+14ююв24662 0.0 102267
21:00+11ююв39851 0.0 1022161
15 апреля, чт
чт1500:00+9ю27915 0.0 1021113
03:00+8ю22906 0.0 102116
06:00+8ю22855 0.0 102022
09:00+14ююз236136 0.0 1020347
12:00+18юз124649 0.0 10191177
15:00+19з1138100 0.0 10181863
18:00+16с1151100 0.0 101811
21:00+10св5128396 0.0 1020433
16 апреля, пт
пт1600:00+7св51284100 0.0 1022510
03:00+6св51283100 0.0 1023557
06:00+5св51278100 0.0 1024540
09:00+8всв586416 0.0 1025731
12:00+10св575137 0.0 1026931
15:00+12всв56395 0.0 10261324
18:00+10св48433 0.0 1026552
21:00+5св310630 0.0 1028231
17 апреля, сб
сб1700:00+3св29720 0.0 1029187
03:00+1св28763 0.0 1029167
06:00+1ссв28735 0.0 1030211
09:00+8св46445 0.0 1031745
12:00+11св46363 0.0 10301492
15:00+12св46375 0.0 10291779
18:00+10ссв36495 0.0 1029224
21:00+6ссв27685 0.0 1030138
18 апреля, вс
вс1800:00+4св26762 0.0 1031126
03:00+2ссв27820 0.0 1032145
06:00+2св27810 0.0 1033212
09:00+8св35552 0.0 1033749
12:00+11св23435 0.0 10321489
15:00+12св344088 0.0 10311932
18:00+10св365198 0.0 1032396
21:00+7всв2465100 0.0 1033118